sat.trackr.live / text

‹ back to catalog

HULIANWANG DIGUI-148

NORAD 67524 · 2026-013C

PAYLOAD ACTIVE UNKNOWN

§ Identity

Operator
Country
PRC
Launch date
2026-01-19
Launch site
WSC
Launch vehicle
Mass (kg)
RCS (m²)

External: N2YO · Heavens-Above · Gunter

§ Orbital elements

Epoch: 2026-09-20T14:52:35.935968Z

Period
108.33 min
Inclination
50.0112°
Eccentricity
0.0000719
Mean motion
13.29330861 rev/d
Perigee alt
1,148.7 km
Apogee alt
1,149.8 km
Semi-major
7,527.4 km
B*
4.4980e-5
RAAN
13.5228°
Arg perigee
105.9126°
Mean anomaly
254.1826°
Rev number
3,274

§ Raw data

HULIANWANG DIGUI-1481 67524U 26013C   26263.61986037 -.00000103  00000+0  44980-4 0  99982 67524  50.0112  13.5228 0000719 105.9126 254.1826 13.29330861 32747

JSON: /api/v1/satellites/67524 · /tle

For live sub-satellite position, see the globe view (requires WebGL).

§ Visibility from observer

Set your observer location to see the next 7 days of passes ≥ 10°. The values pass through the URL so the page stays shareable.

No JS? Fill the form by hand. The geolocation button needs JavaScript.